Regional Weather Roundup
Issued by NWS

Home | Current Version | Previous Version | Graphics & Text | Print | Product List | Glossary Off
Versions: 1 2 3 4 5 6 7 8 9 10 11 12 13 14 15 16 17 18 19 20 21 22 23 24 25 26 27 28 29 30 31 32 33 34 35 36 37 38 39 40 41 42 43 44 45 46 47 48 49 50

673
ASUS43 KMKX 072200
RWRWI

WISCONSIN REGIONAL WEATHER ROUNDUP
NATIONAL WEATHER SERVICE MILWAUKEE/SULLIVAN WI
400 PM CST WED DEC 07 2016

NOTE: "FAIR" INDICATES FEW OR NO CLOUDS BELOW 12,000 FEET WITH NO
SIGNIFICANT WEATHER AND/OR OBSTRUCTIONS TO VISIBILITY.

WIZ001-002-006>008-014>016-023>028-072300-
NORTHWEST WISCONSIN

CITY           SKY/WX    TMP DP  RH WIND       PRES   REMARKS
SUPERIOR ARPT  CLOUDY    21  11  65 W20       29.91R WCI   6
ASHLAND        LGT SNOW  19  15  84 SW13G23   29.87R VSB 3/4 WCI   6
HAYWARD        CLOUDY    19   9  65 W8G21     29.91R WCI   9
SIREN          CLOUDY    19  10  66 W14G21    29.96S WCI   6
CUMBERLAND     CLOUDY    19  10  68 W17G25    29.94R WCI   4
RICE LAKE      CLOUDY    21  11  67 SW14G22   29.97R WCI   8
CHETEK         CLOUDY    20  11  68 W9G18     29.97R WCI   9
LADYSMITH      FLURRIES  20  13  72 W14       29.93S WCI   7
EAU CLAIRE     CLOUDY    20  13  74 W15       30.00R WCI   6
MENOMONIE      MOCLDY    21  12  68 W17G24    30.02R WCI   7
NEW RICHMOND   PTCLDY    19   9  63 W18G28    30.01R WCI   4
OSCEOLA        MOCLDY    21  10  64 W17G23    30.05R WCI   6
$$

WIZ003>005-009-010-017-018-072300-
NORTH CENTRAL WISCONSIN

CITY           SKY/WX    TMP DP  RH WIND       PRES   REMARKS
MANITOWISH WTR LGT SNOW  17  12  82 W16       29.80R WCI   1
ARBOR VITAE    LGT SNOW  19  13  77 W13G20    29.81R WCI   6
WOODRUFF       LGT SNOW  19  13  77 W13G20    29.81R WCI   6
RHINELANDER    LGT SNOW  20  14  77 W16G23    29.83R WCI   6
EAGLE RIVER    LGT SNOW  19  11  72 W18G24    29.80R WCI   3
LAND O LAKES   LGT SNOW  19  12  76 W12G20    29.80R WCI   6
PHILLIPS       FLURRIES  18  12  77 W10G18    29.85R WCI   6
TOMAHAWK       LGT SNOW  19  13  79 W8G16     29.86S WCI   8
MEDFORD        FLURRIES  18  12  77 W16G22    29.90R WCI   3
MERRILL        LGT SNOW  19  13  77 W15G24    29.89S WCI   5
$$

WIZ029-030-035-036-043>047-072300-
CENTRAL WISCONSIN

CITY           SKY/WX    TMP DP  RH WIND       PRES   REMARKS
WAUSAU         FLURRIES  19  12  74 W22G30    29.92R WCI   2
MOSINEE        CLOUDY    19  12  73 W18G26    29.94R WCI   4
MARSHFIELD     CLOUDY    20  11  68 W16G28    29.95R WCI   6
STEVENS POINT  CLOUDY    20  11  68 W15G23    29.95R WCI   6
WAUPACA        MOCLDY    25  15  64 W18G26    29.97R WCI  12
WAUTOMA        CLOUDY    22  14  71 W17G24    29.99R WCI   8
WISC RAPIDS    CLOUDY    21  13  71 W14G25    29.99R WCI   8
CAMP DOUGLAS   NOT AVBL
$$

WIZ011>013-019>022-031-037>040-048>050-072300-
NORTHEAST WISCONSIN

CITY           SKY/WX    TMP DP  RH WIND       PRES   REMARKS
ANTIGO         FLURRIES  17  12  79 W17G25    29.86S WCI   2
SHAWANO        MOCLDY    26  14  61 W10G18    29.92R WCI  16
OCONTO         MOCLDY    25  13  60 W16G26    29.90S WCI  12
STURGEON BAY   MOCLDY    26  15  63 W16G26    29.89S WCI  14
GREEN BAY      MOCLDY    27  16  63 W16G24    29.93R WCI  15
MANITOWOC      NOT AVBL
APPLETON       MOCLDY    23  12  63 W22       29.94R WCI   8
CLINTONVILLE   CLOUDY    25  14  63 W14G23    29.93R WCI  13
OSHKOSH        MOCLDY    22  13  68 W9G18     29.97R WCI  12
$$

WIZ032>034-041-042-053>061-072300-
SOUTHWEST WISCONSIN

CITY           SKY/WX    TMP DP  RH WIND       PRES   REMARKS
LA CROSSE      CLOUDY    22  12  65 W16       30.10R WCI   8
SPARTA         CLOUDY    21  14  73 W9G17     30.05R WCI  11
VIROQUA        CLOUDY    18  13  79 W16G24    30.05R WCI   4
BOSCOBEL       CLOUDY    22  12  65 SW9       30.13R WCI  12
PRAIRIE DU CHI FLURRIES  21  12  67 W12G17    30.14R WCI   9
PLATTEVILLE    CLOUDY    21  15  78 W15G25    30.12R WCI   7
$$

WIZ056-057-062-063-064-067-068-072300-
SOUTH CENTRAL WISCONSIN

CITY           SKY/WX    TMP DP  RH WIND       PRES   REMARKS
REEDSBURG      CLOUDY    21  12  69 W18G24    30.05R WCI   6
BARABOO/DELLS  MOCLDY    20  12  70 W15       30.03R WCI   7
LONE ROCK      NOT AVBL
MINERAL POINT  FLURRIES  21  16  79 W17G24    30.07R WCI   7
MADISON        MOCLDY    21  14  74 W9        30.06R WCI  11
MIDDLETON      CLOUDY    24  15  68 W12G18    30.05R WCI  13
WATERTOWN      PTCLDY    21  15  76 SW13      30.03R WCI   9
MONROE         CLOUDY    21  14  73 W21       30.07R WCI   6
JANESVILLE     MOCLDY    21  16  79 W14       30.08R WCI   8
$$

WIZ051-052-058>065-066-070>072-072300-
SOUTHEAST WISCONSIN

CITY           SKY/WX    TMP DP  RH WIND       PRES   REMARKS
MILWAUKEE      MOCLDY    26  15  63 W14G24    30.03R WCI  14
WAUKESHA       PTCLDY    21  14  73 SW14      30.03R WCI   8
MILWAUKEE/TIMM CLEAR     25  12  58 W16G23    30.03R WCI  12
RACINE         PTCLDY    25  15  66 W9        30.06R WCI  15
BURLINGTON     CLOUDY    24  17  74 W10G16    30.05R WCI  13
KENOSHA        CLOUDY    25  17  72 W21G30    30.05R WCI  11
FOND DU LAC    MOCLDY    22  12  65 W8        30.00R WCI  12
SHEBOYGAN      PTCLDY    23  14  68 W18       29.98R WCI   9
WEST BEND      PTCLDY    23  16  74 W14G24    29.99  WCI  11
JUNEAU         PTCLDY    20  13  75 SW16      30.03R WCI   5
$$

LSZ147-162-072300-
LAKE SUPERIOR

STATION/POSITION TIME  TEMP    WIND        PRES    WAVE
                       AIR SEA DIR/SP/G            HT/PER
                 (UTC) (F)     (DEG/KT/KT) (MB)    (FT/S)
DEVILS ISLAND    2100   25     250/ 31/ 39 1009.4R
PORT WING        2140   22     220/ 15/ 23 1011.9R
SAXON HARBOR     2140   22     230/  7/ 21 1011.2R
$$

LMZ867-665-643>646-072300-
LAKE MICHIGAN

STATION/POSITION TIME  TEMP    WIND        PRES    WAVE
                       AIR SEA DIR/SP/G            HT/PER
                 (UTC) (F)     (DEG/KT/KT) (MB)    (FT/S)
CHAMBERS ISLAND  2140   26     230/ 12/ 22 1011.5R
NORTHPORT PIER   2147   27     270/  8/ 19 1011.5R
SISTER BAY       2138   29     290/ 24/ 28   N/A
ALGOMA LAKESHORE 2051          270/ 15/ 23   N/A
KEWAUNEE LAKESHO 2130   26     260/ 18/ 22 1012.7R
SHEBOYGAN LAKESH 2100   24     250/ 17/ 19 1015.5R
PORT WASHINGTON  2130   26     270/  8/ 18 1016.9R
MILWAUKEE LAKESH 2140   26     260/ 13/ 17   N/A
KENOSHA   LAKESH 2100   28     260/ 15/ 22 1017.6
$$

TC  - TEMPERATURE IN CELSIUS
VSB - VISIBILITY IN STATUTE MILES
WCI - WIND CHILL INDEX
HX  - HEAT INDEX





USA.gov is the U.S. government's official web portal to all federal, state and local government web resources and services.